RYR54TQ EBCI-LIME

Flight info

Callsign RYR54TQ
Flight time 1h 13m
Altitude 35000
Route RITAX UT27 ROUSY DCT GTQ DCT DEVDI DCT ODINA
Aircraft B38M/M-SDE2E3GIM1RWY/HB1

Departure

Time 2026-05-06 14:29
Airport Brussels South Charleroi Airport (EBCI)

Arrival

Time 2026-05-06 15:42
Airport Il Caravaggio International Airport (LIME)
Time Latitude Longitude Altitude Speed Heading
2026-05-06 14:06 50.46733 4.46637 615 ft 0 kts 335°
2026-05-06 14:22 50.46719 4.46648 622 ft 2 kts 335°
2026-05-06 14:22 50.46704 4.46659 630 ft 2 kts 336°
2026-05-06 14:22 50.46688 4.46660 621 ft 2 kts 35°
2026-05-06 14:23 50.46677 4.46641 622 ft 2 kts 60°
2026-05-06 14:23 50.46673 4.46628 620 ft 1 kts 64°
2026-05-06 14:27 50.46661 4.46783 625 ft 17 kts 152°
2026-05-06 14:27 50.46578 4.46844 615 ft 0 kts 155°
2026-05-06 14:28 50.46577 4.46845 615 ft 1 kts 155°
2026-05-06 14:28 50.46548 4.46866 615 ft 10 kts 155°
2026-05-06 14:28 50.46458 4.46868 621 ft 16 kts 217°
2026-05-06 14:28 50.46361 4.46574 624 ft 62 kts 246°
2026-05-06 14:29 50.46070 4.45575 619 ft 137 kts 245°
2026-05-06 14:29 50.45594 4.43941 852 ft 177 kts 248°
2026-05-06 14:29 50.45089 4.42164 1900 ft 181 kts 249°
2026-05-06 14:29 50.44577 4.40371 2875 ft 180 kts 249°
2026-05-06 14:30 50.44038 4.38503 3507 ft 197 kts 250°
2026-05-06 14:30 50.43462 4.36455 4188 ft 211 kts 250°
2026-05-06 14:30 50.42856 4.34288 4993 ft 221 kts 249°
2026-05-06 14:30 50.42233 4.32073 5947 ft 222 kts 248°
2026-05-06 14:31 50.41896 4.30922 6490 ft 221 kts 248°
2026-05-06 14:31 50.41244 4.28700 7357 ft 227 kts 245°
2026-05-06 14:31 50.40184 4.26777 8050 ft 244 kts 213°
2026-05-06 14:31 50.38540 4.26010 8779 ft 255 kts 179°
2026-05-06 14:32 50.36843 4.26788 9597 ft 262 kts 147°
2026-05-06 14:32 50.35564 4.28869 10305 ft 270 kts 124°
2026-05-06 14:32 50.34375 4.31229 10891 ft 284 kts 131°
2026-05-06 14:32 50.33035 4.33643 11432 ft 303 kts 130°
2026-05-06 14:33 50.31622 4.36219 11951 ft 319 kts 130°
2026-05-06 14:33 50.30155 4.38912 12552 ft 332 kts 130°
2026-05-06 14:33 50.28647 4.41691 13374 ft 336 kts 130°
2026-05-06 14:33 50.27126 4.44497 14177 ft 340 kts 130°
2026-05-06 14:34 50.25589 4.47333 14934 ft 344 kts 130°
2026-05-06 14:34 50.24032 4.50202 15680 ft 348 kts 130°
2026-05-06 14:34 50.22474 4.53074 16426 ft 352 kts 131°
2026-05-06 14:34 50.20860 4.56043 17170 ft 356 kts 131°
2026-05-06 14:35 50.19247 4.59008 17880 ft 360 kts 131°
2026-05-06 14:35 50.17636 4.61967 18515 ft 364 kts 131°
2026-05-06 14:35 50.15987 4.64990 19158 ft 366 kts 131°
2026-05-06 14:35 50.14328 4.68030 19809 ft 369 kts 131°
2026-05-06 14:36 50.12657 4.71088 20427 ft 372 kts 131°
2026-05-06 14:36 50.10971 4.74169 21048 ft 374 kts 131°
2026-05-06 14:36 50.09295 4.77227 21644 ft 377 kts 131°
2026-05-06 14:36 50.07581 4.80353 22242 ft 380 kts 131°
2026-05-06 14:37 50.05863 4.83481 22834 ft 382 kts 131°
2026-05-06 14:37 50.04123 4.86646 23418 ft 385 kts 131°
2026-05-06 14:37 50.02370 4.89828 23909 ft 388 kts 131°
2026-05-06 14:37 50.00627 4.92992 24430 ft 389 kts 131°
2026-05-06 14:38 49.98852 4.96208 24959 ft 391 kts 131°
2026-05-06 14:38 49.97076 4.99421 25455 ft 393 kts 131°
2026-05-06 14:38 49.95289 5.02652 25965 ft 395 kts 131°
2026-05-06 14:38 49.93491 5.05897 26454 ft 397 kts 131°
2026-05-06 14:39 49.91679 5.09165 26921 ft 400 kts 132°
2026-05-06 14:39 49.89858 5.12444 27409 ft 401 kts 132°
2026-05-06 14:39 49.88053 5.15692 27866 ft 404 kts 132°
2026-05-06 14:39 49.86213 5.18997 28304 ft 406 kts 132°
2026-05-06 14:40 49.84364 5.22314 28735 ft 408 kts 132°
2026-05-06 14:40 49.82490 5.25671 29166 ft 411 kts 132°
2026-05-06 14:40 49.80612 5.29031 29584 ft 413 kts 132°
2026-05-06 14:40 49.78724 5.32405 29988 ft 416 kts 132°
2026-05-06 14:41 49.76824 5.35795 30324 ft 418 kts 132°
2026-05-06 14:41 49.74912 5.39203 30635 ft 421 kts 133°
2026-05-06 14:41 49.72982 5.42638 30958 ft 423 kts 133°
2026-05-06 14:41 49.71067 5.46042 31276 ft 426 kts 133°
2026-05-06 14:42 49.69097 5.49540 31597 ft 428 kts 133°
2026-05-06 14:42 49.67156 5.52981 31913 ft 430 kts 133°
2026-05-06 14:42 49.65184 5.56474 32273 ft 431 kts 133°
2026-05-06 14:42 49.63215 5.59954 32718 ft 430 kts 133°
2026-05-06 14:43 49.61247 5.63430 33152 ft 429 kts 133°
2026-05-06 14:43 49.59281 5.66896 33574 ft 429 kts 133°
2026-05-06 14:43 49.57314 5.70361 33965 ft 428 kts 133°
2026-05-06 14:43 49.55375 5.73770 34290 ft 428 kts 133°
2026-05-06 14:44 49.53405 5.77230 34599 ft 429 kts 134°
2026-05-06 14:44 49.51433 5.80691 34832 ft 430 kts 134°
2026-05-06 14:45 49.45522 5.91033 34826 ft 427 kts 134°
2026-05-06 14:45 49.41595 5.97879 34832 ft 427 kts 134°
2026-05-06 14:46 49.37691 6.04671 34822 ft 426 kts 134°
2026-05-06 14:46 49.33754 6.11499 34824 ft 426 kts 134°
2026-05-06 14:47 49.29815 6.18314 34825 ft 427 kts 134°
2026-05-06 14:47 49.25873 6.25116 34826 ft 426 kts 134°
2026-05-06 14:48 49.21918 6.31924 34829 ft 426 kts 134°
2026-05-06 14:48 49.17996 6.38656 34826 ft 426 kts 134°
2026-05-06 14:49 49.14044 6.45421 34825 ft 426 kts 134°
2026-05-06 14:49 49.10089 6.52176 34824 ft 426 kts 134°
2026-05-06 14:50 49.06137 6.58907 34822 ft 426 kts 134°
2026-05-06 14:50 49.02172 6.65645 34822 ft 426 kts 134°
2026-05-06 14:51 48.97900 6.71793 34810 ft 418 kts 154°
2026-05-06 14:51 48.92677 6.75607 34819 ft 419 kts 157°
2026-05-06 14:52 48.87368 6.79311 34821 ft 419 kts 158°
2026-05-06 14:52 48.82047 6.82945 34815 ft 419 kts 158°
2026-05-06 14:53 48.76721 6.86563 34817 ft 419 kts 158°
2026-05-06 14:53 48.71396 6.90170 34820 ft 419 kts 158°
2026-05-06 14:54 48.66063 6.93775 34824 ft 419 kts 158°
2026-05-06 14:54 48.60728 6.97372 34821 ft 419 kts 158°
2026-05-06 14:55 48.55433 7.00934 34823 ft 419 kts 158°
2026-05-06 14:55 48.50101 7.04513 34821 ft 419 kts 159°
2026-05-06 14:56 48.44771 7.08081 34822 ft 419 kts 159°
2026-05-06 14:56 48.39447 7.11638 34832 ft 418 kts 159°
2026-05-06 14:57 48.34116 7.15192 34829 ft 418 kts 159°
2026-05-06 14:57 48.28798 7.18727 34828 ft 418 kts 159°
2026-05-06 14:58 48.24381 7.21659 34827 ft 417 kts 159°
2026-05-06 14:58 48.19073 7.25174 34830 ft 416 kts 159°
2026-05-06 14:59 48.13783 7.28670 34824 ft 416 kts 159°
2026-05-06 14:59 48.08518 7.32141 34833 ft 415 kts 160°
2026-05-06 15:00 48.03235 7.35616 34830 ft 414 kts 160°
2026-05-06 15:00 47.97959 7.39078 34831 ft 414 kts 160°
2026-05-06 15:01 47.92679 7.42536 34839 ft 413 kts 160°
2026-05-06 15:01 47.87792 7.45729 34844 ft 412 kts 160°
2026-05-06 15:02 47.82533 7.49159 34876 ft 412 kts 160°
2026-05-06 15:02 47.77280 7.52578 34880 ft 411 kts 160°
2026-05-06 15:03 47.72098 7.56101 34884 ft 412 kts 158°
2026-05-06 15:03 47.66914 7.59773 34881 ft 411 kts 159°
2026-05-06 15:04 47.61745 7.63412 34878 ft 411 kts 159°
2026-05-06 15:05 47.45697 7.74655 34884 ft 410 kts 159°
2026-05-06 15:06 47.40532 7.78258 34882 ft 410 kts 159°
2026-05-06 15:06 47.35361 7.81857 34878 ft 410 kts 159°
2026-05-06 15:07 47.30198 7.85441 34884 ft 410 kts 159°
2026-05-06 15:07 47.25035 7.89019 34884 ft 410 kts 160°
2026-05-06 15:08 47.19871 7.92590 34885 ft 410 kts 160°
2026-05-06 15:08 47.14726 7.96139 34878 ft 411 kts 160°
2026-05-06 15:09 47.09539 7.99711 34887 ft 411 kts 160°
2026-05-06 15:09 47.04343 8.03280 34886 ft 411 kts 160°
2026-05-06 15:10 46.99165 8.06830 34882 ft 411 kts 160°
2026-05-06 15:10 46.93972 8.10381 34879 ft 411 kts 160°
2026-05-06 15:11 46.88824 8.13895 34883 ft 410 kts 161°
2026-05-06 15:11 46.83659 8.17413 34907 ft 409 kts 161°
2026-05-06 15:12 46.78488 8.20929 34903 ft 409 kts 161°
2026-05-06 15:12 46.74194 8.23840 34908 ft 408 kts 161°
2026-05-06 15:13 46.69072 8.27310 34847 ft 397 kts 161°
2026-05-06 15:13 46.65823 8.29505 34681 ft 382 kts 162°
2026-05-06 15:13 46.64199 8.30600 34436 ft 379 kts 162°
2026-05-06 15:13 46.61808 8.32213 33976 ft 378 kts 162°
2026-05-06 15:14 46.59427 8.33818 33391 ft 378 kts 162°
2026-05-06 15:14 46.57073 8.35403 32910 ft 375 kts 162°
2026-05-06 15:14 46.54720 8.36987 32467 ft 371 kts 163°
2026-05-06 15:14 46.52381 8.38557 32040 ft 368 kts 163°
2026-05-06 15:15 46.50070 8.40110 31590 ft 364 kts 163°
2026-05-06 15:15 46.47783 8.41644 31170 ft 360 kts 163°
2026-05-06 15:15 46.45516 8.43162 30740 ft 356 kts 163°
2026-05-06 15:15 46.43281 8.44659 30331 ft 352 kts 164°
2026-05-06 15:16 46.41063 8.46143 29920 ft 349 kts 164°
2026-05-06 15:16 46.38863 8.47614 29419 ft 346 kts 164°
2026-05-06 15:16 46.36693 8.49063 29003 ft 341 kts 164°
2026-05-06 15:16 46.34564 8.50486 28615 ft 334 kts 163°
2026-05-06 15:17 46.32468 8.51881 28251 ft 329 kts 164°
2026-05-06 15:17 46.30402 8.53256 27836 ft 330 kts 163°
2026-05-06 15:17 46.28310 8.54649 27460 ft 330 kts 163°
2026-05-06 15:17 46.26230 8.56032 27078 ft 328 kts 163°
2026-05-06 15:18 46.24163 8.57405 26709 ft 327 kts 163°
2026-05-06 15:18 46.22098 8.58777 26322 ft 326 kts 163°
2026-05-06 15:18 46.20044 8.60141 25956 ft 325 kts 163°
2026-05-06 15:18 46.17995 8.61499 25562 ft 323 kts 163°
2026-05-06 15:19 46.15957 8.62849 25194 ft 322 kts 162°
2026-05-06 15:19 46.13922 8.64196 24811 ft 321 kts 162°
2026-05-06 15:19 46.11912 8.65567 24397 ft 322 kts 157°
2026-05-06 15:19 46.10171 8.67633 23966 ft 337 kts 136°
2026-05-06 15:20 46.08869 8.70492 23599 ft 343 kts 129°
2026-05-06 15:20 46.07631 8.73437 23152 ft 344 kts 128°
2026-05-06 15:20 46.06397 8.76402 22689 ft 345 kts 128°
2026-05-06 15:20 46.05171 8.79370 22272 ft 344 kts 128°
2026-05-06 15:21 46.03956 8.82319 21878 ft 341 kts 128°
2026-05-06 15:21 46.02748 8.85251 21497 ft 339 kts 128°
2026-05-06 15:21 46.01543 8.88180 21101 ft 339 kts 127°
2026-05-06 15:21 46.00342 8.91092 20703 ft 338 kts 127°
2026-05-06 15:22 45.99144 8.93996 20307 ft 336 kts 127°
2026-05-06 15:22 45.97955 8.96876 19922 ft 333 kts 127°
2026-05-06 15:22 45.96776 8.99730 19532 ft 331 kts 127°
2026-05-06 15:22 45.95833 9.02008 19230 ft 329 kts 127°
2026-05-06 15:23 45.94672 9.04811 18897 ft 323 kts 126°
2026-05-06 15:23 45.93554 9.07505 18860 ft 317 kts 127°
2026-05-06 15:23 45.92423 9.10241 18879 ft 319 kts 126°
2026-05-06 15:23 45.91291 9.12986 18870 ft 319 kts 126°
2026-05-06 15:24 45.90160 9.15722 18867 ft 319 kts 126°
2026-05-06 15:24 45.89028 9.18464 18861 ft 319 kts 126°
2026-05-06 15:24 45.87887 9.21221 18877 ft 320 kts 126°
2026-05-06 15:24 45.86756 9.23962 18866 ft 320 kts 126°
2026-05-06 15:25 45.85622 9.26712 18864 ft 320 kts 126°
2026-05-06 15:25 45.84476 9.29458 18628 ft 320 kts 127°
2026-05-06 15:25 45.83306 9.32184 18277 ft 320 kts 127°
2026-05-06 15:25 45.82146 9.34918 17803 ft 320 kts 127°
2026-05-06 15:26 45.81013 9.37604 17374 ft 319 kts 126°
2026-05-06 15:26 45.79870 9.40320 16941 ft 316 kts 126°
2026-05-06 15:26 45.78739 9.43005 16525 ft 314 kts 126°
2026-05-06 15:26 45.77609 9.45691 16097 ft 313 kts 126°
2026-05-06 15:27 45.76486 9.48359 15642 ft 314 kts 126°
2026-05-06 15:27 45.75354 9.51044 15186 ft 314 kts 126°
2026-05-06 15:27 45.74223 9.53726 14725 ft 315 kts 126°
2026-05-06 15:27 45.73091 9.56407 14287 ft 314 kts 126°
2026-05-06 15:28 45.71962 9.59078 13850 ft 314 kts 126°
2026-05-06 15:28 45.70838 9.61733 13402 ft 314 kts 126°
2026-05-06 15:28 45.69713 9.64392 12924 ft 313 kts 125°
2026-05-06 15:28 45.68628 9.66950 12464 ft 312 kts 125°
2026-05-06 15:29 45.67469 9.69598 11999 ft 309 kts 131°
2026-05-06 15:29 45.65883 9.71549 11543 ft 299 kts 156°
2026-05-06 15:29 45.63995 9.72729 11120 ft 293 kts 159°
2026-05-06 15:29 45.62159 9.73887 10689 ft 286 kts 159°
2026-05-06 15:30 45.60353 9.75018 10272 ft 279 kts 160°
2026-05-06 15:30 45.58594 9.76114 9858 ft 273 kts 160°
2026-05-06 15:30 45.56867 9.77189 9430 ft 268 kts 160°
2026-05-06 15:30 45.55170 9.78244 9033 ft 262 kts 160°
2026-05-06 15:31 45.53520 9.79263 8641 ft 256 kts 161°
2026-05-06 15:31 45.51827 9.79859 8248 ft 247 kts 174°
2026-05-06 15:31 45.50162 9.80144 7888 ft 240 kts 183°
2026-05-06 15:32 45.47519 9.77850 7258 ft 229 kts 238°
2026-05-06 15:32 45.46815 9.75827 7141 ft 233 kts 248°
2026-05-06 15:32 45.46717 9.73522 6858 ft 239 kts 277°
2026-05-06 15:32 45.47248 9.71263 6585 ft 243 kts 294°
2026-05-06 15:33 45.48212 9.69259 6311 ft 247 kts 304°
2026-05-06 15:33 45.49255 9.67318 6061 ft 245 kts 304°
2026-05-06 15:33 45.50294 9.65399 5898 ft 244 kts 304°
2026-05-06 15:33 45.51280 9.63591 5788 ft 244 kts 304°
2026-05-06 15:34 45.52321 9.61685 5666 ft 243 kts 304°
2026-05-06 15:34 45.53364 9.59781 5539 ft 243 kts 305°
2026-05-06 15:34 45.54407 9.57879 5408 ft 243 kts 305°
2026-05-06 15:34 45.55443 9.55987 5283 ft 242 kts 305°
2026-05-06 15:35 45.56477 9.54100 5158 ft 241 kts 305°
2026-05-06 15:35 45.57513 9.52205 5026 ft 241 kts 305°
2026-05-06 15:35 45.58548 9.50314 4893 ft 242 kts 305°
2026-05-06 15:35 45.59586 9.48431 4792 ft 241 kts 306°
2026-05-06 15:36 45.60622 9.46540 4696 ft 241 kts 305°
2026-05-06 15:36 45.61651 9.44638 4588 ft 242 kts 305°
2026-05-06 15:36 45.62688 9.42746 4485 ft 242 kts 308°
2026-05-06 15:36 45.63972 9.41247 4351 ft 239 kts 335°
2026-05-06 15:37 45.65583 9.40995 4175 ft 234 kts 12°
2026-05-06 15:37 45.67095 9.41589 4129 ft 221 kts 17°
2026-05-06 15:37 45.68512 9.42231 4113 ft 206 kts 19°
2026-05-06 15:37 45.69844 9.42967 4063 ft 207 kts 32°
2026-05-06 15:38 45.70813 9.44354 4014 ft 199 kts 67°
2026-05-06 15:38 45.71028 9.46205 3977 ft 184 kts 98°
2026-05-06 15:38 45.70781 9.47958 3944 ft 177 kts 107°
2026-05-06 15:38 45.70480 9.49656 3598 ft 178 kts 103°
2026-05-06 15:39 45.70290 9.51390 3381 ft 176 kts 101°
2026-05-06 15:39 45.70067 9.53148 3131 ft 181 kts 103°
2026-05-06 15:39 45.69772 9.54890 2867 ft 180 kts 105°
2026-05-06 15:39 45.69444 9.56601 2618 ft 174 kts 106°
2026-05-06 15:40 45.69137 9.58173 2410 ft 156 kts 105°
2026-05-06 15:40 45.68864 9.59603 2169 ft 142 kts 105°
2026-05-06 15:40 45.68611 9.60970 1951 ft 140 kts 104°
2026-05-06 15:40 45.68373 9.62282 1766 ft 139 kts 105°
2026-05-06 15:41 45.68117 9.63621 1590 ft 139 kts 105°
2026-05-06 15:41 45.67871 9.64937 1410 ft 136 kts 106°
2026-05-06 15:41 45.67623 9.66240 1214 ft 135 kts 107°
2026-05-06 15:41 45.67380 9.67522 1038 ft 132 kts 108°
2026-05-06 15:42 45.67135 9.68793 870 ft 132 kts 106°
2026-05-06 15:42 45.66908 9.70014 790 ft 108 kts 105°
2026-05-06 15:42 45.66767 9.70782 790 ft 60 kts 104°
2026-05-06 15:42 45.66670 9.71300 790 ft 45 kts 105°
2026-05-06 15:43 45.66607 9.71641 790 ft 32 kts 105°
2026-05-06 15:43 45.66564 9.71867 790 ft 18 kts 109°
2026-05-06 15:43 45.66494 9.71881 790 ft 13 kts 233°
2026-05-06 15:43 45.66463 9.71751 790 ft 16 kts 255°
2026-05-06 15:44 45.66439 9.71561 790 ft 22 kts 277°
2026-05-06 15:44 45.66479 9.71341 790 ft 24 kts 285°
2026-05-06 15:44 45.66535 9.71106 790 ft 26 kts 290°
2026-05-06 15:44 45.66576 9.70898 790 ft 22 kts 285°
2026-05-06 15:45 45.66615 9.70689 790 ft 20 kts 284°
2026-05-06 15:45 45.66650 9.70500 790 ft 21 kts 285°
2026-05-06 15:45 45.66689 9.70289 790 ft 20 kts 284°
2026-05-06 15:45 45.66683 9.70197 790 ft 8 kts 212°
2026-05-06 15:46 45.66633 9.70176 790 ft 7 kts 194°
2026-05-06 15:46 45.66615 9.70169 790 ft 0 kts 194°